Friday Harbor, WA
on Sunday, December 16, 2012

Sunday
Previous Day Next Day
Daily Summary
 ActualAverageRecord
Temperature
Mean Temperature °F °F  
Max Temperature 44°F 43°F 53°F (1999)
Min Temperature 39°F 35°F 15°F (2008)
Degree Days
Heating Degree Days 24    
Moisture
Dew Point 37°F   
Average Humidity 85    
Maximum Humidity 93    
Minimum Humidity 76    
Precipitation
Precipitation 0.03 in in in ()
Wind
Wind Speed 11 mph   
Max Wind Speed 23 mph   
Max Gust Speed 39 mph   
Visibility 10 miles   
Events Rain   
Averages and records for this station are not official NWS values.
Key: T is trace of precipitation, MM is missing value
Source: NWS Daily Summary
Seasonal Weather Averages
Time(PST)TemperatureDew PointHumidity Pressure Visibility Wind DirectionWind SpeedGust SpeedPrecipitationEvents Conditions
12:53 AM 39.9°F 35.1°F 83% 29.66 in 10.0 miles SSW 6.9 mph 18.4 mph N/A   Overcast
1:53 AM 39.0°F 35.1°F 86% 29.68 in 10.0 miles SW 3.5 mph - N/A   Mostly Cloudy
2:53 AM 39.9°F 35.1°F 83% 29.70 in 10.0 miles SW 9.2 mph 16.1 mph 0.00 in   Overcast
3:53 AM 39.9°F 34.0°F 79% 29.69 in 10.0 miles SW 8.1 mph - N/A   Overcast
4:53 AM 41.0°F 34.0°F 76% 29.69 in 10.0 miles SSW 10.4 mph 18.4 mph N/A   Mostly Cloudy
5:53 AM 39.9°F 34.0°F 79% 29.71 in 10.0 miles SSW 5.8 mph - N/A   Overcast
6:53 AM 41.0°F 35.1°F 79% 29.71 in 10.0 miles SSW 5.8 mph - N/A   Overcast
7:53 AM 41.0°F 37.0°F 86% 29.70 in 10.0 miles Variable 3.5 mph - N/A   Overcast
8:03 AM 39.2°F 35.6°F 87% 29.70 in 9.0 miles Variable 3.5 mph - 0.00 in Rain Light Rain
8:53 AM 39.9°F 37.0°F 89% 29.70 in 10.0 miles SSE 12.7 mph - 0.00 in Rain Light Rain
9:01 AM 39.2°F 37.4°F 93% 29.70 in 10.0 miles SSE 10.4 mph - 0.00 in   Overcast
9:53 AM 39.9°F 37.0°F 89% 29.67 in 10.0 miles ESE 10.4 mph - 0.00 in   Mostly Cloudy
10:39 AM 39.2°F 37.4°F 93% 29.67 in 10.0 miles ESE 11.5 mph - N/A   Mostly Cloudy
10:53 AM 41.0°F 36.0°F 82% 29.66 in 10.0 miles SE 11.5 mph - N/A   Mostly Cloudy
11:02 AM 41.0°F 35.6°F 81% 29.65 in 10.0 miles ESE 15.0 mph - N/A   Mostly Cloudy
11:19 AM 41.0°F 37.4°F 87% 29.64 in 10.0 miles ESE 11.5 mph - N/A   Mostly Cloudy
11:53 AM 41.0°F 37.0°F 86% 29.61 in 10.0 miles ESE 15.0 mph - N/A   Overcast
12:53 PM 41.0°F 36.0°F 82% 29.54 in 10.0 miles ESE 17.3 mph 25.3 mph N/A   Overcast
1:13 PM 41.0°F 35.6°F 81% 29.52 in 10.0 miles ESE 21.9 mph 28.8 mph N/A   Overcast
1:32 PM 39.2°F 35.6°F 87% 29.50 in 10.0 miles ESE 19.6 mph 25.3 mph N/A   Overcast
1:53 PM 39.9°F 36.0°F 86% 29.48 in 10.0 miles East 20.7 mph 27.6 mph N/A   Overcast
2:53 PM 39.9°F 35.1°F 83% 29.41 in 10.0 miles East 17.3 mph 25.3 mph N/A   Overcast
3:30 PM 39.2°F 35.6°F 87% 29.36 in 10.0 miles East 18.4 mph 28.8 mph N/A   Overcast
3:53 PM 41.0°F 35.1°F 79% 29.31 in 10.0 miles East 18.4 mph 26.5 mph N/A   Overcast
4:14 PM 41.0°F 35.6°F 81% 29.27 in 10.0 miles East 19.6 mph 29.9 mph 0.00 in Rain Light Rain
4:53 PM 39.9°F 36.0°F 86% 29.20 in 7.0 miles East 20.7 mph 31.1 mph 0.01 in Rain Light Rain
5:53 PM 39.9°F 37.0°F 89% 29.11 in 10.0 miles East 17.3 mph 24.2 mph 0.02 in Rain Light Rain
6:53 PM 39.9°F 37.0°F 89% 29.03 in 10.0 miles ENE 12.7 mph 25.3 mph 0.00 in   Overcast
7:09 PM 39.2°F 37.4°F 93% 29.02 in 10.0 miles ENE 10.4 mph 17.3 mph N/A   Overcast
7:53 PM 42.1°F 37.9°F 85% 28.99 in 10.0 miles East 20.7 mph 33.4 mph N/A   Overcast
8:53 PM 43.0°F 39.0°F 86% 28.95 in 10.0 miles ESE 23.0 mph 39.1 mph 0.00 in   Overcast
9:20 PM 42.8°F 39.2°F 87% 28.96 in 10.0 miles ESE 21.9 mph 34.5 mph 0.00 in Rain Light Rain
9:53 PM 43.0°F 39.0°F 86% 28.96 in 10.0 miles ESE 23.0 mph 31.1 mph 0.00 in Rain Light Rain
10:53 PM 44.1°F 41.0°F 89% 28.93 in 10.0 miles ESE 15.0 mph 23.0 mph 0.00 in   Overcast
11:53 PM 43.0°F 39.9°F 89% 28.93 in 10.0 miles SE 16.1 mph 24.2 mph N/A   Overcast
Moon Phase
Dec. 16 Dec. 20 Dec. 28 Jan. 04 Jan. 11
Sunrise:07:58 AM (PST) Moon Rise:10:20 AM (PST)12/16
Sunset:04:17 PM (PST) Moon Set:08:55 PM (PST)12/16

Copyright © 2014 The Weather Underground, Inc.